Location: Brantford
(43.1330°N, 80.2670°W)
Time: 05:39:07
(UTC-04:00)

Envisat - Visible Passes

Search period start: 15 September 2019 00:00
Search period end: 25 September 2019 00:00
Orbit: 764 x 766 km, 98.1° (Epoch: 15 September)

Date Brightness Start Highest point End Pass type
(mag) Time Alt. Az. Time Alt. Az. Time Alt. Az.
15 Sep 4.7 20:10:38 10° SSW 20:15:18 37° W 20:20:01 10° NNW visible
17 Sep 5.7 20:37:09 10° SW 20:41:00 22° W 20:44:54 10° NW visible
18 Sep 4.2 19:59:08 10° S 20:04:00 47° W 20:08:54 10° NNW visible
19 Sep 6.1 21:04:48 10° WSW 21:06:49 12° W 21:08:51 10° WNW visible
20 Sep 5.3 20:25:23 10° SSW 20:29:39 27° W 20:33:58 10° NW visible
21 Sep 3.7 19:47:43 10° S 19:52:42 59° W 19:57:44 10° NNW visible
22 Sep 5.9 20:52:24 10° SW 20:55:25 16° W 20:58:27 10° NW visible
23 Sep 4.8 20:13:45 10° SSW 20:18:19 34° W 20:22:56 10° NNW visible
24 Sep 3.3 19:36:22 10° S 19:41:26 75° WSW 19:46:32 10° NNW visible
